TITAN 3C TRANSTAGE R/B, 1863

Orbit data source: Space-Track

TITAN 3C TRANSTAGE R/B, 1863 is space debris in HEO originally from a launch on Tue, 21 Dec 1965 UTC launched from the Air Force Eastern Test Range (AFETR). Debris objects in space refer to the collection of defunct objects orbiting the Earth. Examples of debris include non-operational satellites, rocket bodies, and fragments generated from explosions, collisions, or faulty payload assembly.

Loading next visibility...
Identifier
1863, 1965-108A
Orbit
HEO
Country
Flag of USUS
Related business
Manufacturer
Martin Marietta
Mission
Spacecraft
Bus & Motor
TRANSTAGE, Unknown motor
Mass
~2,050 kg wet, 1,950 kg dry
Launch date (UTC)
1965-12-21 (60 years ago)
Launch vehicle
Unknown
Launch site
Air Force Eastern Test Range (AFETR)
Object type
Payload
Rocket body
Debris
Shape & HBR
Cyl + 2 Nozzle, 2.3 m
Radar Cross Section
14.974 m², Large (>1 m²)

Expand to show TLE details & history
Last TLE update: 2 days ago

TLE from 2 days ago
0 TITAN 3C TRANSTAGE R/B
1 01863U 65108A   25241.01251179  .00008520  00000-0  31113-2 0  9994
2 01863  26.7492  75.3206 6028787 116.7662 315.9554  3.96578501356695
Epoch: 2025-08-29T00:18Z
TLE epoch observation values (Epoch: 2025-08-29T00:18:01.018Z)
Latitude
-0.00002°
Longitude
93.38352°
Altitude
8,327.264 km
Speed
5.529 km/s
True Right ascension
05h 01m 25s
True Declination
0° 00' 00"
Sunlit
Object was in daylight at epoch
Visualization orbit readout
Latitude
Unknown
Longitude
Unknown
Altitude
Unknown
Speed
Unknown
Apparent Right ascension
Unknown
Apparent Declination
Unknown
Sunlit
N/A
Visualization observer readout
Local Sidereal Time
16:00:55
Azimuth
Unknown
Elevation
Unknown
Doppler factor
Unknown
Orbital elements
Apogee altitude
20,651.625 km
Perigee altitude
318.623 km
Semi-major axis
16,863.261 km
Eccentricity
0.60288
Inclination
26.7492°
RAAN
75.3206°
Arg. of periapsis
116.7662°
True anomaly
243.33102°
Mean anomaly
315.9554°
Eccentric anomaly
282.1921°
Mean motion
0.99113 °/min
Orbital period
363.22 mins
BSTAR
0.0031113
Loading maneuver chart data...
Computing Atmospheric mass density...

Documentation

Showing up to 5 results
|